TimeCST,TemperatureF,Dew PointF,Humidity,Sea Level PressureIn,VisibilityMPH,Wind Direction,Wind SpeedMPH,Gust SpeedMPH,PrecipitationIn,Events,Conditions,WindDirDegrees,DateUTC
12:15 AM,37.4,32.0,81,29.64,10.0,WNW,13.8,25.3,N/A,,Overcast,300,2013-02-14 06:15:00
12:35 AM,35.6,32.0,87,29.64,10.0,WNW,13.8,-,N/A,,Overcast,290,2013-02-14 06:35:00
12:55 AM,35.6,32.0,87,29.64,10.0,WNW,16.1,27.6,N/A,,Overcast,290,2013-02-14 06:55:00
1:15 AM,35.6,32.0,87,29.65,10.0,NNW,13.8,26.5,N/A,,Overcast,330,2013-02-14 07:15:00
1:35 AM,35.6,30.2,81,29.66,10.0,NW,21.9,29.9,N/A,Snow,Light Snow,310,2013-02-14 07:35:00
1:55 AM,33.8,30.2,87,29.67,10.0,NW,18.4,25.3,N/A,,Overcast,310,2013-02-14 07:55:00
2:15 AM,33.8,30.2,87,29.67,10.0,NW,19.6,35.7,N/A,Snow,Light Snow,310,2013-02-14 08:15:00
2:35 AM,33.8,30.2,87,29.68,10.0,NW,25.3,33.4,N/A,Snow,Light Snow,310,2013-02-14 08:35:00
2:55 AM,33.8,30.2,87,29.69,10.0,NW,18.4,32.2,N/A,Snow,Light Snow,320,2013-02-14 08:55:00
3:15 AM,33.8,30.2,87,29.70,10.0,NW,17.3,27.6,N/A,Snow,Light Snow,320,2013-02-14 09:15:00
3:35 AM,32.0,30.2,93,29.71,10.0,NW,21.9,33.4,N/A,Snow,Light Snow,320,2013-02-14 09:35:00
3:55 AM,32.0,30.2,93,29.72,10.0,NW,19.6,28.8,N/A,Snow,Light Snow,320,2013-02-14 09:55:00
4:15 AM,32.0,30.2,93,29.73,10.0,NW,15.0,27.6,N/A,Snow,Light Snow,320,2013-02-14 10:15:00
4:35 AM,32.0,30.2,93,29.74,8.0,NW,18.4,-,N/A,,Overcast,320,2013-02-14 10:35:00
4:55 AM,32.0,30.2,93,29.75,9.0,NW,16.1,24.2,N/A,Snow,Light Snow,320,2013-02-14 10:55:00
5:15 AM,32.0,30.2,93,29.77,8.0,NW,16.1,23.0,N/A,,Overcast,320,2013-02-14 11:15:00
5:35 AM,32.0,30.2,93,29.78,8.0,NW,13.8,24.2,N/A,,Overcast,320,2013-02-14 11:35:00
5:55 AM,32.0,30.2,93,29.78,7.0,NNW,15.0,23.0,N/A,Snow,Light Snow,330,2013-02-14 11:55:00
6:15 AM,32.0,30.2,93,29.79,8.0,NNW,18.4,24.2,N/A,,Overcast,330,2013-02-14 12:15:00
6:35 AM,32.0,30.2,93,29.80,8.0,NW,17.3,-,N/A,,Overcast,320,2013-02-14 12:35:00
6:55 AM,32.0,30.2,93,29.81,8.0,NNW,15.0,21.9,N/A,,Overcast,330,2013-02-14 12:55:00
7:15 AM,32.0,30.2,93,29.81,7.0,NNW,17.3,24.2,N/A,,Overcast,330,2013-02-14 13:15:00
7:35 AM,32.0,30.2,93,29.82,7.0,NNW,15.0,21.9,N/A,,Overcast,330,2013-02-14 13:35:00
7:55 AM,32.0,30.2,93,29.83,7.0,NW,12.7,19.6,N/A,,Overcast,320,2013-02-14 13:55:00
8:15 AM,32.0,28.4,87,29.84,7.0,NW,15.0,-,N/A,,Overcast,320,2013-02-14 14:15:00
8:35 AM,30.2,28.4,93,29.84,7.0,NNW,13.8,-,N/A,,Overcast,330,2013-02-14 14:35:00
8:55 AM,30.2,28.4,93,29.85,7.0,NW,11.5,-,N/A,,Overcast,320,2013-02-14 14:55:00
9:15 AM,30.2,28.4,93,29.86,7.0,NNW,12.7,-,N/A,,Overcast,330,2013-02-14 15:15:00
9:35 AM,32.0,28.4,87,29.87,8.0,NNW,8.1,-,N/A,,Overcast,330,2013-02-14 15:35:00
9:55 AM,32.0,28.4,87,29.87,8.0,NNW,6.9,-,N/A,,Overcast,330,2013-02-14 15:55:00
10:15 AM,32.0,28.4,87,29.87,9.0,NW,8.1,-,N/A,,Overcast,320,2013-02-14 16:15:00
10:35 AM,32.0,28.4,87,29.88,9.0,WNW,8.1,-,N/A,,Overcast,290,2013-02-14 16:35:00
10:55 AM,33.8,30.2,87,29.87,10.0,NW,6.9,-,N/A,,Overcast,310,2013-02-14 16:55:00
11:15 AM,32.0,30.2,93,29.88,10.0,West,9.2,-,N/A,,Overcast,280,2013-02-14 17:15:00
11:35 AM,32.0,30.2,93,29.89,8.0,West,11.5,-,N/A,,Overcast,280,2013-02-14 17:35:00
11:55 AM,32.0,30.2,93,29.89,4.0,West,11.5,-,N/A,,Overcast,280,2013-02-14 17:55:00
12:15 PM,32.0,30.2,93,29.88,4.0,West,10.4,-,N/A,Snow,Light Snow,280,2013-02-14 18:15:00
12:35 PM,32.0,30.2,93,29.89,2.5,WNW,9.2,-,N/A,Snow,Light Snow,290,2013-02-14 18:35:00
12:55 PM,32.0,32.0,100,29.89,2.0,WNW,8.1,-,N/A,Snow,Light Snow,300,2013-02-14 18:55:00
1:15 PM,32.0,30.2,93,29.89,2.0,NNW,9.2,-,N/A,Snow,Light Snow,330,2013-02-14 19:15:00
1:35 PM,32.0,30.2,93,29.89,1.0,North,10.4,16.1,N/A,Snow,Light Snow,350,2013-02-14 19:35:00
1:55 PM,30.2,30.2,100,29.90,0.8,North,13.8,20.7,N/A,Snow,Light Snow,350,2013-02-14 19:55:00
2:15 PM,30.2,28.4,93,29.91,1.0,NNW,16.1,-,N/A,Snow,Light Snow,340,2013-02-14 20:15:00
2:35 PM,30.2,28.4,93,29.93,1.8,North,12.7,19.6,N/A,,Overcast,350,2013-02-14 20:35:00
2:55 PM,30.2,28.4,93,29.94,4.0,NNW,13.8,-,N/A,,Mostly Cloudy,340,2013-02-14 20:55:00
3:15 PM,30.2,28.4,93,29.95,3.0,NNW,13.8,-,N/A,Snow,Light Snow,330,2013-02-14 21:15:00
3:35 PM,30.2,26.6,86,29.96,9.0,NNW,18.4,25.3,N/A,Rain,Freezing Rain,330,2013-02-14 21:35:00
3:55 PM,30.2,24.8,80,29.97,10.0,NNW,18.4,26.5,N/A,Snow,Light Snow,340,2013-02-14 21:55:00
4:15 PM,30.2,23.0,75,29.98,10.0,NNW,20.7,-,N/A,Snow,Light Snow,330,2013-02-14 22:15:00
4:35 PM,28.4,24.8,86,29.99,10.0,NNW,19.6,26.5,N/A,Snow,Light Snow,330,2013-02-14 22:35:00
4:55 PM,28.4,23.0,80,30.00,10.0,NNW,19.6,-,N/A,Snow,Light Snow,330,2013-02-14 22:55:00
5:15 PM,28.4,23.0,80,30.02,10.0,NNW,17.3,23.0,N/A,Snow,Light Snow,330,2013-02-14 23:15:00
5:35 PM,26.6,21.2,80,30.04,10.0,NNW,18.4,25.3,N/A,Snow,Light Snow,330,2013-02-14 23:35:00
5:55 PM,26.6,19.4,74,30.04,10.0,North,-9999.0,-,N/A,Snow,Light Snow,0,2013-02-14 23:55:00
6:15 PM,24.8,19.4,80,30.06,10.0,NNW,18.4,28.8,N/A,Snow,Light Snow,330,2013-02-15 00:15:00
6:35 PM,24.8,17.6,74,30.07,10.0,NNW,20.7,28.8,N/A,Snow,Light Snow,330,2013-02-15 00:35:00
6:55 PM,24.8,15.8,69,30.08,10.0,NNW,20.7,27.6,N/A,Snow,Light Snow,340,2013-02-15 00:55:00
7:15 PM,24.8,17.6,74,30.09,10.0,NNW,18.4,24.2,N/A,Snow,Light Snow,340,2013-02-15 01:15:00
7:35 PM,23.0,15.8,74,30.09,10.0,NNW,19.6,26.5,N/A,Snow,Light Snow,340,2013-02-15 01:35:00
7:55 PM,23.0,14.0,68,30.11,10.0,NNW,17.3,28.8,N/A,Snow,Light Snow,340,2013-02-15 01:55:00
8:15 PM,21.2,14.0,74,30.12,10.0,NNW,15.0,25.3,N/A,Snow,Light Snow,330,2013-02-15 02:15:00
8:35 PM,21.2,14.0,74,30.12,10.0,NNW,17.3,28.8,N/A,Snow,Light Snow,340,2013-02-15 02:35:00
8:55 PM,21.2,14.0,74,30.13,10.0,NNW,17.3,25.3,N/A,Snow,Light Snow,340,2013-02-15 02:55:00
9:15 PM,19.4,12.2,74,30.14,10.0,NNW,18.4,-,N/A,Snow,Light Snow,330,2013-02-15 03:15:00
9:35 PM,19.4,12.2,74,30.15,10.0,NNW,18.4,25.3,N/A,,Clear,340,2013-02-15 03:35:00
9:55 PM,19.4,12.2,74,30.16,10.0,NNW,17.3,-,N/A,,Clear,330,2013-02-15 03:55:00
10:15 PM,17.6,10.4,73,30.16,10.0,NNW,17.3,-,N/A,,Clear,330,2013-02-15 04:15:00
10:35 PM,17.6,10.4,73,30.16,10.0,NNW,17.3,23.0,N/A,,Clear,330,2013-02-15 04:35:00
10:55 PM,17.6,10.4,73,30.17,10.0,NNW,13.8,23.0,N/A,Snow,Light Snow,330,2013-02-15 04:55:00
11:15 PM,17.6,8.6,68,30.17,10.0,NNW,17.3,-,N/A,Snow,Light Snow,340,2013-02-15 05:15:00
11:35 PM,15.8,8.6,73,30.17,10.0,NNW,17.3,-,N/A,,Clear,340,2013-02-15 05:35:00
11:55 PM,15.8,6.8,68,30.18,10.0,NNW,12.7,20.7,N/A,,Clear,340,2013-02-15 05:55:00